Miscellaneous Local Product
Issued by NWS Hastings, NE

Home | Current Version | Previous Version | Graphics & Text | Print | Product List | Glossary On
Versions: 1 2 3 4 5 6 7 8 9 10 11 12 13 14 15 16 17 18 19 20 21 22 23 24 25 26 27 28 29 30 31 32 33 34 35 36 37 38 39 40 41 42 43 44 45 46 47 48 49 50
027
AXUS43 KGID 200902
MISGRI

GID CWA HOURLY WEATHER ROUNDUP
NATIONAL WEATHER SERVICE HASTINGS NE
400 AM CDT WED SEP 20 2017

NOTE: "FAIR" INDICATES FEW OR NO CLOUDS BELOW 12,000 FEET WITH NO
SIGNIFICANT WEATHER AND/OR OBSTRUCTIONS TO VISIBILITY.

...SOUTH CENTRAL NEBRASKA...

CITY           SKY/WX    TMP DP  RH WIND       PRES   REMARKS
GRAND ISLAND   PTCLDY    59  51  75 NW9       29.75R
HASTINGS       CLEAR     58  49  72 N9        29.76R
KEARNEY        CLEAR     56  49  77 NW7       29.78R
ORD            CLEAR     50  46  86 NW7       29.76R
YORK           CLEAR     63  50  63 N6        29.71R
AURORA         CLEAR     60  49  66 NW7       29.73R
LEXINGTON      CLEAR     49  45  85 W8        29.82R
HOLDREGE       CLEAR     51  47  84 NW7       29.79R
HEBRON         CLEAR     66  53  61 NW5       29.69R

...NEBRASKA PANHANDLE...

CITY           SKY/WX    TMP DP  RH WIND       PRES   REMARKS
CHADRON        CLOUDY    42  33  70 SW6       29.83R
ALLIANCE       CLOUDY    52  33  48 W17       29.83R
SCOTTSBLUFF    CLOUDY    53  30  41 W13       29.87S
SIDNEY         CLEAR     53  29  39 NW14      29.88R

...WESTERN AND NORTH CENTRAL NEBRASKA...

CITY           SKY/WX    TMP DP  RH WIND       PRES   REMARKS
VALENTINE      CLOUDY    53  47  79 SE5       29.80R
AINSWORTH      MOCLDY    52  47  84 NW3       29.82R
ONEILL         CLEAR     54  49  85 NW9       29.78R
BROKEN BOW     PTCLDY    55  43  63 N8        29.80R
IMPERIAL       CLOUDY    49  33  54 NW7       29.88R
NORTH PLATTE   CLEAR     45  41  86 NW8       29.84R
MCCOOK         CLOUDY    50  36  58 W9        29.84R

...EASTERN NEBRASKA...

CITY           SKY/WX    TMP DP  RH WIND       PRES   REMARKS
NORFOLK        PTCLDY    59  53  80 N5        29.72R
SO SIOUX CITY  MOCLDY    63  58  83 N3        29.68F
TEKAMAH        MOCLDY    65  56  72 N9        29.66S
COLUMBUS       CLEAR     63  52  67 N10       29.70R
ALBION         CLEAR     56  51  82 N5        29.75R
OMAHA EPPLEY   MOCLDY    75  69  81 SE8       29.64R
OFFUTT AFB     CLEAR     75  70  85 S6        29.63S
MILLARD        MOCLDY    78  72  81 SE3       29.64R
LINCOLN        CLEAR     77  68  73 W8        29.64R
NEBRASKA CITY  PTCLDY    76  73  88 SW9       29.67R
BEATRICE       CLEAR     77  71  80 S9        29.64F
FALLS CITY     CLOUDY    78  69  73 S18G28    29.64S

...NORTHERN KANSAS...

CITY           SKY/WX    TMP DP  RH WIND       PRES   REMARKS
GOODLAND       CLEAR     45  34  65 NW8       29.87S
HILL CITY      CLEAR     59  41  51 NW8       29.79S
NORTON         SUNNY     54  37  54 W12       29.80R
PHILLIPSBURG   CLEAR     57  45  62 W9        29.77R
SMITH CENTER   CLEAR     61  46  59 NW9       29.74R
HAYS           CLEAR     63  41  44 N14       29.75R
RUSSELL        CLEAR     65  44  46 NW14      29.72R
CONCORDIA      CLEAR     74  60  61 W9        29.67R
SALINA         CLEAR     80  63  55 SW13      29.68R
TOPEKA         CLOUDY    78  71  79 S16G24    29.67F



USA.gov is the U.S. government's official web portal to all federal, state and local government web resources and services.